Home > Weather > Barcelona > Past weeks

Flag for Spain Weather for the Past 2 Weeks in Barcelona, Barcelona, Spain

Now
64 °F

Passing clouds.


Feels Like: 64 °F
Forecast: 51 / 60 °F
Wind: 15 mph from Southwest

Location: Barcelona Airport

Current Time: Feb 13, 2016 at 10:23:14 AM

Latest Report: Feb 13, 2016 at 10:00 AM


Visibility: N/A

Pressure: 29.59 "Hg

Humidity: 68%

Dew point: 54 °F

Location of BarcelonaLocation

Historic Weather in Barcelona — Graph

°F

Barcelona Temperature Yesterday

Maximum temperature yesterday: 64 °F (at 4:30 PM)
Minimum temperature yesterday: 50 °F (at 12:00 AM)
Average temperature yesterday: 56 °F

High & Low Weather Summary for the Past Weeks

 TemperatureHumidityPressure
High68 °F (Feb 9, 3:30 PM)100% (Feb 7, 6:00 AM)30.60 "Hg (Feb 7, 6:00 AM)
Low43 °F (Feb 4, 7:30 AM)37% (Feb 9, 10:00 PM)29.56 "Hg (Feb 13, 3:00 AM)
Average55 °F72%30.15 "Hg
* Reported Jan 29 9:00 AM — Feb 13 9:00 AM, Barcelona, Weather by CustomWeather, © 2016

Note: Actual official high and low records may vary slightly from our data, if they occured in-between our weather recording intervals... More about our weather records

Advertising

Barcelona Weather History for the Previous 24 Hours

 ConditionsComfort  
Time TempWeatherWind HumidityBarometerVisibility
9:00 AM
Sat, Feb 13
63 °FPassing clouds.13 mph73%29.59 "HgN/A
8:30 AM61 °FPassing clouds.9 mph72%29.59 "HgN/A
8:00 AM61 °FPassing clouds.10 mph77%29.56 "HgN/A
7:30 AM61 °FPassing clouds.14 mph72%29.56 "HgN/A
7:00 AM61 °FPassing clouds.12 mph72%29.56 "HgN/A
6:30 AM61 °FPassing clouds.13 mph72%29.56 "HgN/A
6:00 AM59 °FPassing clouds.13 mph77%29.56 "HgN/A
5:30 AM61 °FPassing clouds.12 mph72%29.56 "HgN/A
5:00 AM61 °FPassing clouds.12 mph72%29.56 "HgN/A
4:30 AM61 °FPassing clouds.13 mph77%29.56 "HgN/A
4:00 AM61 °FPassing clouds.10 mph77%29.56 "HgN/A
3:30 AM61 °FPassing clouds.14 mph83%29.56 "HgN/A
3:00 AM61 °FPassing clouds.15 mph83%29.56 "HgN/A
2:30 AM57 °FPassing clouds.5 mph88%29.59 "HgN/A
2:00 AM57 °FPassing clouds.1 mph82%29.59 "HgN/A
1:30 AM57 °FPassing clouds.3 mph82%29.62 "HgN/A
1:00 AM59 °FPassing clouds.5 mph77%29.62 "HgN/A
12:30 AM61 °FPassing clouds.1 mph72%29.62 "HgN/A
12:00 AM61 °FPassing clouds.2 mph77%29.62 "HgN/A
11:30 PM
Fri, Feb 12
61 °FPassing clouds.5 mph72%29.59 "HgN/A
11:00 PM59 °FPassing clouds.12 mph82%29.59 "HgN/A
10:30 PM63 °FPassing clouds.7 mph73%29.59 "HgN/A
10:00 PM63 °FPassing clouds.6 mph68%29.59 "HgN/A
9:30 PM63 °FPassing clouds.5 mph68%29.59 "HgN/A
9:00 PM63 °FPassing clouds.13 mph68%29.59 "HgN/A
8:30 PM63 °FPassing clouds.12 mph73%29.59 "HgN/A
8:00 PM59 °FPassing clouds.13 mph88%29.59 "HgN/A
7:30 PM59 °FPassing clouds.14 mph88%29.59 "HgN/A
7:00 PM61 °FPassing clouds.12 mph77%29.59 "HgN/A
6:30 PM59 °FPassing clouds.15 mph82%29.59 "HgN/A
6:00 PM61 °FPassing clouds.17 mph77%29.59 "HgN/A
5:30 PM61 °FPassing clouds.16 mph77%29.59 "HgN/A
5:00 PM63 °FPassing clouds.15 mph68%29.59 "HgN/A
4:30 PM64 °FPartly sunny.16 mph64%29.59 "HgN/A
4:00 PM63 °FPartly sunny.17 mph73%29.59 "HgN/A
3:30 PM63 °FPartly sunny.24 mph68%29.59 "HgN/A
3:00 PM63 °FPassing clouds.25 mph68%29.59 "HgN/A
2:30 PM63 °FPassing clouds.25 mph68%29.59 "HgN/A
2:00 PM61 °FPassing clouds.21 mph77%29.62 "HgN/A
1:30 PM61 °FPassing clouds.18 mph77%29.62 "HgN/A
1:00 PM59 °FPassing clouds.22 mph82%29.62 "HgN/A
12:30 PM57 °FPassing clouds.17 mph88%29.65 "HgN/A
12:00 PM55 °FScattered clouds.16 mph88%29.68 "HgN/A
11:30 AM57 °FScattered clouds.15 mph82%29.71 "HgN/A
11:00 AM55 °FPassing clouds.15 mph88%29.71 "HgN/A
10:30 AM55 °FPassing clouds.15 mph82%29.68 "HgN/A
10:00 AM55 °FPassing clouds.13 mph88%29.68 "HgN/A
Weather by CustomWeather, © 2016

See weather overviewHow to use our weather pages